Regional Weather Roundup
Issued by NWS Little Rock, AR

Home | Current Version | Previous Version | Text Only | Print | Product List | Glossary Off
Versions: 1 2 3 4 5 6 7 8 9 10 11 12 13 14 15 16 17 18 19 20 21 22 23 24 25 26 27 28 29 30 31 32 33 34 35 36 37 38 39 40 41 42 43 44 45 46 47 48 49 50

000
ASUS44 KLZK 110705
RWRLZK

WEATHER ROUNDUP FOR ARKANSAS
NATIONAL WEATHER SERVICE LITTLE ROCK AR
200 AM CDT FRI JUL 11 2014

NOTE: "FAIR" INDICATES FEW OR NO CLOUDS BELOW 12,000 FEET WITH NO
SIGNIFICANT WEATHER AND/OR OBSTRUCTIONS TO VISIBILITY.

ARZ001-003-010-029-110800-
NORTHWEST ARKANSAS

CITY           SKY/WX    TMP DP  RH WIND       PRES   REMARKS
FAYETTEVILLE   PTCLDY    67  66  97 CALM      30.10F
FORT SMITH     CLOUDY    72  69  90 E6        30.07S
HARRISON       CLOUDY    67  65  93 SE7       30.13S
BENTONVILLE    PTCLDY    70  64  83 SE7       30.11S
ROGERS         MOCLDY    69  65  86 E9        30.11F
SILOAM SPGS    MOCLDY    68  61  77 E6        30.11S
HIGHFILL       PTCLDY    68  67  96 CALM      30.10S
$$

ARZ004-005-016-110800-
NORTH CENTRAL ARKANSAS

CITY           SKY/WX    TMP DP  RH WIND       PRES   REMARKS
BATESVILLE     MOCLDY    73  72  94 NW3       30.10S
FLIPPIN        PTCLDY    70  64  83 CALM      30.12S
MTN HOME       MOCLDY    70  69  97 SE3       30.11S
$$

ARZ040-041-110800-
WEST CENTRAL ARKANSAS

CITY           SKY/WX    TMP DP  RH WIND       PRES   REMARKS
MENA           MOCLDY    73 N/A N/A CALM      30.11F
MOUNT IDA      CLOUDY    71  69  93 CALM      30.09S
$$

ARZ009-017-025-026-028-110800-
NORTHEAST ARKANSAS

CITY           SKY/WX    TMP DP  RH WIND       PRES   REMARKS
CORNING        FAIR      72  70  94 N5        30.11F
JONESBORO      CLOUDY    73  69  87 CALM      30.09F
NEWPORT        CLOUDY    76  71  84 CALM      30.10S
WALNUT RIDGE   MOCLDY    75  70  83 NE6       30.09F
BLYTHEVILLE    MOCLDY    73  71  93 CALM      30.11R
$$

ARZ022-023-033-042-044-110800-
CENTRAL ARKANSAS

CITY           SKY/WX    TMP DP  RH WIND       PRES   REMARKS
LITTLE ROCK    CLOUDY    72  69  90 CALM      30.09F
N LITTLE ROCK    N/A     70  69  99 CALM      30.09F
JACKSONVILLE   MOCLDY    71  70  97 CALM      30.09F
SEARCY         PTCLDY    74  73  96 CALM      30.10F
HOT SPRINGS    CLOUDY    73  68  84 CALM      30.10S
RUSSELLVILLE   MOCLDY    71  69  93 CALM      30.09F
CLINTON        MOCLDY    72  72 100 CALM      30.11F
$$

ARZ036-110800-
EAST ARKANSAS

CITY           SKY/WX    TMP DP  RH WIND       PRES   REMARKS
WEST MEMPHIS   CLOUDY    74  72  93 CALM      30.08F
$$

ARZ050-053-066-070-073-110800-
SOUTHWEST ARKANSAS

CITY           SKY/WX    TMP DP  RH WIND       PRES   REMARKS
ARKADELPHIA    FAIR      73  71  93 CALM      30.10S
CAMDEN         PTCLDY    72  68  88 CALM      30.09R
TEXARKANA      PTCLDY    74  70  87 S6        30.08R
EL DORADO      PTCLDY    70  70 100 S5        30.09S
DE QUEEN       CLOUDY    74  70  87 E3        30.07S
$$

ARZ056-057-069-110800-
SOUTHEAST ARKANSAS

CITY           SKY/WX    TMP DP  RH WIND       PRES   REMARKS
PINE BLUFF     CLOUDY    73  71  93 CALM      30.09F
MONTICELLO     CLOUDY    72  70  93 CALM      30.09S

$$




USA.gov is the U.S. government's official web portal to all federal, state and local government web resources and services.